TimePST,TemperatureF,Dew PointF,Humidity,Sea Level PressureIn,VisibilityMPH,Wind Direction,Wind SpeedMPH,Gust SpeedMPH,PrecipitationIn,Events,Conditions,WindDirDegrees,DateUTC
12:56 AM,45.0,43.0,93,30.30,8.0,ESE,4.6,-,N/A,,Overcast,110,2013-11-06 08:56:00
1:56 AM,45.0,43.0,93,30.31,7.0,ESE,3.5,-,N/A,,Overcast,110,2013-11-06 09:56:00
2:56 AM,45.0,44.1,97,30.30,6.0,ESE,3.5,-,0.00,Rain,Light Rain,110,2013-11-06 10:56:00
3:56 AM,45.0,44.1,97,30.30,6.0,East,3.5,-,0.01,Rain,Light Rain,100,2013-11-06 11:56:00
4:56 AM,46.0,44.1,93,30.31,7.0,East,4.6,-,0.00,Rain,Light Rain,90,2013-11-06 12:56:00
5:56 AM,45.0,44.1,97,30.32,7.0,ESE,3.5,-,0.00,,Overcast,120,2013-11-06 13:56:00
6:56 AM,44.1,42.1,93,30.33,5.0,ESE,4.6,-,N/A,Fog,Overcast,120,2013-11-06 14:56:00
7:02 AM,42.8,42.8,100,30.32,2.8,SSE,3.5,-,N/A,Fog,Mostly Cloudy,150,2013-11-06 15:02:00
7:23 AM,44.6,42.8,93,30.32,4.0,ENE,3.5,-,N/A,Fog,Overcast,70,2013-11-06 15:23:00
7:56 AM,45.0,43.0,93,30.34,4.0,ESE,5.8,-,N/A,Fog,Overcast,110,2013-11-06 15:56:00
8:56 AM,46.9,44.1,90,30.35,7.0,East,4.6,-,N/A,,Overcast,100,2013-11-06 16:56:00
9:56 AM,48.0,45.0,89,30.35,10.0,East,5.8,-,N/A,,Overcast,100,2013-11-06 17:56:00
10:56 AM,48.9,43.0,80,30.34,10.0,East,6.9,-,N/A,,Overcast,80,2013-11-06 18:56:00
11:56 AM,50.0,44.1,80,30.32,10.0,ESE,8.1,-,N/A,,Overcast,110,2013-11-06 19:56:00
12:56 PM,50.0,42.1,74,30.30,10.0,East,8.1,-,N/A,,Overcast,90,2013-11-06 20:56:00
1:56 PM,51.1,44.1,77,30.28,10.0,East,5.8,-,N/A,,Overcast,100,2013-11-06 21:56:00
2:56 PM,51.1,44.1,77,30.27,10.0,ESE,4.6,-,N/A,,Overcast,110,2013-11-06 22:56:00
3:56 PM,50.0,44.1,80,30.25,10.0,ENE,4.6,-,N/A,,Overcast,70,2013-11-06 23:56:00
4:13 PM,50.0,42.8,76,30.23,10.0,ENE,3.5,-,0.00,Rain,Light Rain,60,2013-11-07 00:13:00
4:56 PM,48.9,43.0,80,30.22,10.0,NE,4.6,-,0.00,,Overcast,40,2013-11-07 00:56:00
5:37 PM,48.2,42.8,82,30.21,10.0,Calm,Calm,-,0.00,Rain,Light Rain,0,2013-11-07 01:37:00
5:56 PM,48.9,43.0,80,30.21,10.0,Calm,Calm,-,0.00,Rain,Light Rain,0,2013-11-07 01:56:00
6:08 PM,48.2,42.8,82,30.19,10.0,Calm,Calm,-,0.00,,Overcast,0,2013-11-07 02:08:00
6:56 PM,48.9,42.1,77,30.20,10.0,Calm,Calm,-,0.00,Rain,Light Rain,0,2013-11-07 02:56:00
7:56 PM,46.9,43.0,86,30.17,10.0,East,5.8,-,0.00,Rain,Light Rain,80,2013-11-07 03:56:00
8:56 PM,48.9,42.1,77,30.12,10.0,East,16.1,-,0.00,Rain,Light Rain,100,2013-11-07 04:56:00
9:56 PM,48.0,42.1,80,30.07,10.0,ESE,17.3,-,0.00,Rain,Light Rain,120,2013-11-07 05:56:00
10:56 PM,48.9,42.1,77,30.03,10.0,ESE,16.1,25.3,0.00,,Overcast,120,2013-11-07 06:56:00
11:08 PM,48.2,42.8,82,30.01,10.0,SE,15.0,26.5,0.00,Rain,Light Rain,130,2013-11-07 07:08:00
11:56 PM,48.0,44.1,86,29.99,10.0,SE,23.0,32.2,0.02,Rain,Light Rain,130,2013-11-07 07:56:00